This is the latest recevied weather packets stored in our database for station/object HOWARD. If no packets are shown the sender has not sent any weather packets the latest 10 day(s).
| Time | Temp. | Humidity | Pressure | Rain* | Wind** | Luminosity | Snow |
|---|---|---|---|---|---|---|---|
| 1788602688 | 2.78° C | 63% | 1012.4 hPa | 0 mm | - | - | - |
| 1788602088 | 2.78° C | 62% | 1012.4 hPa | 0 mm | - | - | - |
| 1788601488 | 3.33° C | 62% | 1012.6 hPa | 0 mm | - | - | - |
| 1788600888 | 2.78° C | 65% | 1012.6 hPa | 0 mm | - | - | - |
| 1788600288 | 2.78° C | 67% | 1012.7 hPa | 0 mm | - | - | - |
| 1788599688 | 2.78° C | 67% | 1012.6 hPa | 0 mm | - | - | - |
| 1788599088 | 2.78° C | 65% | 1012.5 hPa | 0 mm | - | - | - |
| 1788598488 | 2.78° C | 69% | 1012.5 hPa | 0 mm | - | - | - |
| 1788597888 | 2.78° C | 69% | 1012.4 hPa | 0 mm | - | - | - |
| 1788597288 | 2.78° C | 71% | 1012.5 hPa | 0 mm | - | - | - |
| 1788596688 | 2.22° C | 71% | 1012.4 hPa | 0 mm | - | - | - |
| 1788596088 | 2.22° C | 74% | 1012.6 hPa | 0 mm | - | - | - |
| 1788595488 | 2.22° C | 82% | 1012.6 hPa | 0 mm | - | - | - |
| 1788594888 | 2.22° C | 86% | 1012.6 hPa | 0 mm | - | - | - |
| 1788594288 | 1.67° C | 86% | 1012.5 hPa | 0 mm | - | - | - |
| 1788593688 | 1.67° C | 84% | 1012.5 hPa | 0 mm | - | - | - |
| 1788593088 | 1.67° C | 83% | 1012.5 hPa | 0 mm | - | - | - |
| 1788592488 | 1.67° C | 84% | 1012.4 hPa | 0 mm | - | - | - |
| 1788591888 | 2.22° C | 83% | 1012.4 hPa | 0 mm | - | - | - |
| 1788591288 | 2.22° C | 79% | 1012.5 hPa | 0 mm | - | - | - |
| 1788590688 | 2.22° C | 79% | 1012.3 hPa | 0 mm | - | - | - |
| 1788590088 | 2.22° C | 79% | 1012.3 hPa | 0 mm | - | - | - |
| 1788589488 | 2.22° C | 81% | 1012.2 hPa | 0 mm | - | - | - |
| 1788588964 | 2.78° C | 83% | 1012 hPa | 0 mm | - | - | - |
| 1788588888 | 2.78° C | 83% | 1012 hPa | 0 mm | - | - | - |
* Rain latest hour (hover to see other rain measurements)
** Current wind speed in m/s (hover to see current wind gust speed)